Wetterdaten: Dienstag, 29.01.2008
Datum Zeit Temp. I. Temp. A. Feuchte A. Luftdruck Regen Wind
29.01.2008 00:02 21,8 C 4,7 C 89 % 1025 hPa 0,0 l/m 0,0 km/h (0 Bft)
29.01.2008 00:05 21,8 C 4,7 C 89 % 1024 hPa 0,0 l/m 0,1 km/h (0 Bft)
29.01.2008 00:08 21,8 C 4,7 C 89 % 1024 hPa 0,0 l/m 0,0 km/h (0 Bft)
29.01.2008 00:11 21,8 C 4,7 C 90 % 1024 hPa 0,0 l/m 0,2 km/h (0 Bft)
29.01.2008 00:14 21,8 C 4,7 C 90 % 1024 hPa 0,0 l/m 2,2 km/h (1 Bft)
29.01.2008 00:17 21,8 C 4,7 C 90 % 1024 hPa 0,0 l/m 0,1 km/h (0 Bft)
29.01.2008 00:20 21,8 C 4,7 C 89 % 1024 hPa 0,0 l/m 0,0 km/h (0 Bft)
29.01.2008 00:23 21,8 C 4,7 C 89 % 1024 hPa 0,0 l/m 0,0 km/h (0 Bft)
29.01.2008 00:26 21,8 C 4,7 C 89 % 1024 hPa 0,0 l/m 0,0 km/h (0 Bft)
29.01.2008 00:29 21,8 C 4,7 C 89 % 1024 hPa 0,0 l/m 0,0 km/h (0 Bft)
29.01.2008 00:32 21,8 C 4,7 C 89 % 1024 hPa 0,0 l/m 0,0 km/h (0 Bft)
29.01.2008 00:35 21,8 C 4,7 C 89 % 1024 hPa 0,0 l/m 0,0 km/h (0 Bft)
29.01.2008 00:38 21,8 C 4,7 C 89 % 1024 hPa 0,0 l/m 0,0 km/h (0 Bft)
29.01.2008 00:41 21,8 C 4,6 C 89 % 1024 hPa 0,0 l/m 0,0 km/h (0 Bft)
29.01.2008 00:44 21,7 C 4,5 C 89 % 1024 hPa 0,0 l/m 0,4 km/h (0 Bft)
29.01.2008 00:47 21,7 C 4,5 C 90 % 1024 hPa 0,0 l/m 1,9 km/h (1 Bft)
29.01.2008 00:50 21,7 C 4,4 C 90 % 1024 hPa 0,0 l/m 0,0 km/h (0 Bft)
29.01.2008 00:53 21,7 C 4,4 C 90 % 1024 hPa 0,0 l/m 0,0 km/h (0 Bft)
29.01.2008 00:56 21,7 C 4,3 C 90 % 1024 hPa 0,0 l/m 0,0 km/h (0 Bft)
29.01.2008 00:59 21,7 C 4,3 C 90 % 1024 hPa 0,0 l/m 0,0 km/h (0 Bft)
29.01.2008 01:02 21,7 C 4,3 C 90 % 1024 hPa 0,0 l/m 0,0 km/h (0 Bft)
29.01.2008 01:05 21,7 C 4,3 C 90 % 1024 hPa 0,0 l/m 0,0 km/h (0 Bft)
29.01.2008 01:08 21,7 C 4,3 C 90 % 1024 hPa 0,0 l/m 0,0 km/h (0 Bft)
29.01.2008 01:11 21,7 C 4,3 C 90 % 1024 hPa 0,0 l/m 0,0 km/h (0 Bft)
29.01.2008 01:14 21,7 C 4,3 C 90 % 1024 hPa 0,0 l/m 0,0 km/h (0 Bft)
29.01.2008 01:17 21,7 C 4,2 C 90 % 1024 hPa 0,0 l/m 0,0 km/h (0 Bft)
29.01.2008 01:20 21,7 C 4,2 C 90 % 1024 hPa 0,0 l/m 0,0 km/h (0 Bft)
29.01.2008 01:23 21,7 C 4,2 C 90 % 1024 hPa 0,0 l/m 0,0 km/h (0 Bft)
29.01.2008 01:26 21,7 C 4,2 C 90 % 1024 hPa 0,0 l/m 3,0 km/h (1 Bft)
29.01.2008 01:29 21,7 C 4,1 C 90 % 1024 hPa 0,0 l/m 0,1 km/h (0 Bft)
29.01.2008 01:32 21,7 C 4,1 C 90 % 1024 hPa 0,0 l/m 0,0 km/h (0 Bft)
29.01.2008 01:35 21,6 C 4,1 C 90 % 1024 hPa 0,0 l/m 0,0 km/h (0 Bft)
29.01.2008 01:38 21,7 C 4,1 C 90 % 1024 hPa 0,0 l/m 0,1 km/h (0 Bft)
29.01.2008 01:41 21,6 C 4,1 C 91 % 1024 hPa 0,0 l/m 0,0 km/h (0 Bft)
29.01.2008 01:44 21,6 C 4,1 C 90 % 1024 hPa 0,0 l/m 0,0 km/h (0 Bft)
29.01.2008 01:47 21,6 C 4,1 C 90 % 1023 hPa 0,0 l/m 0,0 km/h (0 Bft)
29.01.2008 01:50 21,6 C 4,1 C 90 % 1023 hPa 0,0 l/m 0,0 km/h (0 Bft)
29.01.2008 01:53 21,6 C 4,0 C 91 % 1023 hPa 0,0 l/m 0,0 km/h (0 Bft)
29.01.2008 01:56 21,6 C 4,0 C 91 % 1023 hPa 0,0 l/m 0,0 km/h (0 Bft)
29.01.2008 01:59 21,6 C 4,0 C 91 % 1023 hPa 0,0 l/m 0,0 km/h (0 Bft)
29.01.2008 02:02 21,6 C 4,0 C 91 % 1023 hPa 0,0 l/m 0,0 km/h (0 Bft)
29.01.2008 02:05 21,6 C 4,0 C 91 % 1023 hPa 0,0 l/m 0,0 km/h (0 Bft)
29.01.2008 02:08 21,5 C 4,0 C 91 % 1023 hPa 0,0 l/m 0,0 km/h (0 Bft)
29.01.2008 02:11 21,5 C 4,0 C 91 % 1024 hPa 0,0 l/m 0,0 km/h (0 Bft)
29.01.2008 02:14 21,5 C 4,0 C 91 % 1024 hPa 0,0 l/m 0,0 km/h (0 Bft)
29.01.2008 02:17 21,5 C 4,0 C 91 % 1023 hPa 0,0 l/m 0,0 km/h (0 Bft)
29.01.2008 02:20 21,5 C 4,1 C 91 % 1023 hPa 0,0 l/m 0,0 km/h (0 Bft)
29.01.2008 02:23 21,4 C 4,1 C 91 % 1023 hPa 0,0 l/m 0,1 km/h (0 Bft)
29.01.2008 02:26 21,4 C 4,0 C 91 % 1023 hPa 0,0 l/m 0,0 km/h (0 Bft)
29.01.2008 02:29 21,4 C 4,0 C 90 % 1023 hPa 0,0 l/m 0,0 km/h (0 Bft)
29.01.2008 02:32 21,4 C 3,9 C 91 % 1023 hPa 0,0 l/m 0,0 km/h (0 Bft)
29.01.2008 02:35 21,4 C 4,0 C 91 % 1023 hPa 0,0 l/m 0,0 km/h (0 Bft)
29.01.2008 02:38 21,4 C 3,9 C 91 % 1023 hPa 0,0 l/m 0,0 km/h (0 Bft)
29.01.2008 02:41 21,4 C 3,9 C 90 % 1023 hPa 0,0 l/m 0,0 km/h (0 Bft)
29.01.2008 02:44 21,4 C 3,9 C 90 % 1023 hPa 0,0 l/m 0,0 km/h (0 Bft)
29.01.2008 02:47 21,4 C 3,9 C 90 % 1023 hPa 0,0 l/m 1,3 km/h (1 Bft)
29.01.2008 02:49 21,3 C 3,9 C 90 % 1023 hPa 0,0 l/m 1,4 km/h (1 Bft)
29.01.2008 02:52 21,3 C 3,8 C 90 % 1023 hPa 0,0 l/m 0,0 km/h (0 Bft)
29.01.2008 02:55 21,3 C 3,7 C 90 % 1023 hPa 0,0 l/m 0,0 km/h (0 Bft)
29.01.2008 02:58 21,2 C 3,6 C 90 % 1023 hPa 0,0 l/m 0,0 km/h (0 Bft)
29.01.2008 03:01 21,2 C 3,6 C 90 % 1023 hPa 0,0 l/m 0,0 km/h (0 Bft)
29.01.2008 03:04 21,2 C 3,6 C 91 % 1023 hPa 0,0 l/m 0,0 km/h (0 Bft)
29.01.2008 03:07 21,2 C 3,5 C 91 % 1023 hPa 0,0 l/m 0,0 km/h (0 Bft)
29.01.2008 03:10 21,2 C 3,4 C 91 % 1023 hPa 0,0 l/m 0,0 km/h (0 Bft)
29.01.2008 03:13 21,2 C 3,4 C 91 % 1023 hPa 0,0 l/m 0,0 km/h (0 Bft)
29.01.2008 03:16 21,1 C 3,4 C 91 % 1023 hPa 0,0 l/m 0,0 km/h (0 Bft)
29.01.2008 03:19 21,1 C 3,4 C 91 % 1023 hPa 0,0 l/m 0,0 km/h (0 Bft)
29.01.2008 03:22 21,1 C 3,3 C 91 % 1023 hPa 0,0 l/m 0,0 km/h (0 Bft)
29.01.2008 03:25 21,1 C 3,3 C 91 % 1023 hPa 0,0 l/m 0,0 km/h (0 Bft)
29.01.2008 03:28 21,0 C 3,3 C 91 % 1023 hPa 0,0 l/m 0,0 km/h (0 Bft)
29.01.2008 03:31 21,0 C 3,3 C 91 % 1023 hPa 0,0 l/m 0,0 km/h (0 Bft)
29.01.2008 03:34 21,0 C 3,3 C 91 % 1023 hPa 0,0 l/m 0,0 km/h (0 Bft)
29.01.2008 03:37 21,0 C 3,3 C 91 % 1023 hPa 0,0 l/m 0,0 km/h (0 Bft)
29.01.2008 03:40 21,0 C 3,3 C 91 % 1023 hPa 0,0 l/m 0,0 km/h (0 Bft)
29.01.2008 03:43 21,0 C 3,2 C 91 % 1023 hPa 0,0 l/m 0,0 km/h (0 Bft)
29.01.2008 03:46 21,0 C 3,1 C 91 % 1023 hPa 0,0 l/m 0,0 km/h (0 Bft)
29.01.2008 03:49 21,0 C 3,1 C 91 % 1023 hPa 0,0 l/m 0,0 km/h (0 Bft)
29.01.2008 03:52 21,0 C 3,1 C 91 % 1023 hPa 0,0 l/m 0,0 km/h (0 Bft)
29.01.2008 03:55 21,0 C 3,0 C 91 % 1023 hPa 0,0 l/m 0,0 km/h (0 Bft)
29.01.2008 03:58 21,0 C 3,0 C 91 % 1023 hPa 0,0 l/m 0,0 km/h (0 Bft)
29.01.2008 04:01 20,9 C 3,0 C 91 % 1023 hPa 0,0 l/m 0,0 km/h (0 Bft)
29.01.2008 04:04 21,0 C 3,0 C 91 % 1023 hPa 0,0 l/m 0,0 km/h (0 Bft)
29.01.2008 04:07 21,0 C 2,9 C 91 % 1023 hPa 0,0 l/m 0,0 km/h (0 Bft)
29.01.2008 04:10 21,0 C 2,8 C 90 % 1023 hPa 0,0 l/m 0,0 km/h (0 Bft)
29.01.2008 04:13 20,9 C 2,8 C 90 % 1023 hPa 0,0 l/m 0,0 km/h (0 Bft)
29.01.2008 04:16 20,9 C 2,8 C 90 % 1023 hPa 0,0 l/m 0,0 km/h (0 Bft)
29.01.2008 04:19 20,9 C 2,8 C 91 % 1023 hPa 0,0 l/m 0,0 km/h (0 Bft)
29.01.2008 04:22 20,9 C 2,8 C 91 % 1023 hPa 0,0 l/m 0,0 km/h (0 Bft)
29.01.2008 04:25 20,9 C 2,7 C 91 % 1023 hPa 0,0 l/m 0,0 km/h (0 Bft)
29.01.2008 04:28 20,9 C 2,8 C 91 % 1023 hPa 0,0 l/m 0,0 km/h (0 Bft)
29.01.2008 04:31 20,9 C 2,8 C 91 % 1023 hPa 0,0 l/m 0,0 km/h (0 Bft)
29.01.2008 04:34 20,9 C 2,8 C 91 % 1023 hPa 0,0 l/m 0,0 km/h (0 Bft)
29.01.2008 04:37 20,8 C 2,7 C 91 % 1023 hPa 0,0 l/m 0,0 km/h (0 Bft)
29.01.2008 04:40 20,8 C 2,7 C 91 % 1023 hPa 0,0 l/m 0,0 km/h (0 Bft)
29.01.2008 04:43 20,8 C 2,7 C 91 % 1023 hPa 0,0 l/m 0,0 km/h (0 Bft)
29.01.2008 04:46 20,8 C 2,7 C 91 % 1023 hPa 0,0 l/m 0,0 km/h (0 Bft)
29.01.2008 04:49 20,8 C 2,7 C 91 % 1023 hPa 0,0 l/m 0,0 km/h (0 Bft)
29.01.2008 04:52 20,8 C 2,7 C 91 % 1023 hPa 0,0 l/m 0,0 km/h (0 Bft)
29.01.2008 04:55 20,8 C 2,7 C 91 % 1023 hPa 0,0 l/m 0,0 km/h (0 Bft)
29.01.2008 04:58 20,8 C 2,7 C 91 % 1023 hPa 0,0 l/m 0,0 km/h (0 Bft)
29.01.2008 05:01 20,8 C 2,6 C 91 % 1023 hPa 0,0 l/m 0,0 km/h (0 Bft)
29.01.2008 05:04 20,8 C 2,6 C 91 % 1023 hPa 0,0 l/m 0,0 km/h (0 Bft)
29.01.2008 05:07 20,8 C 2,6 C 91 % 1023 hPa 0,0 l/m 0,0 km/h (0 Bft)
29.01.2008 05:10 20,8 C 2,5 C 91 % 1023 hPa 0,0 l/m 0,0 km/h (0 Bft)
29.01.2008 05:13 20,8 C 2,5 C 91 % 1023 hPa 0,0 l/m 0,0 km/h (0 Bft)
29.01.2008 05:17 20,7 C 2,5 C 91 % 1023 hPa 0,0 l/m 0,0 km/h (0 Bft)
29.01.2008 05:20 20,7 C 2,5 C 91 % 1023 hPa 0,0 l/m 0,0 km/h (0 Bft)
29.01.2008 05:23 20,7 C 2,5 C 91 % 1023 hPa 0,0 l/m 0,0 km/h (0 Bft)
29.01.2008 05:26 20,7 C 2,5 C 91 % 1023 hPa 0,0 l/m 1,3 km/h (1 Bft)
29.01.2008 05:29 20,7 C 2,5 C 91 % 1023 hPa 0,0 l/m 2,7 km/h (1 Bft)
29.01.2008 05:32 20,7 C 2,5 C 91 % 1023 hPa 0,0 l/m 0,1 km/h (0 Bft)
29.01.2008 05:35 20,7 C 2,5 C 91 % 1023 hPa 0,0 l/m 0,1 km/h (0 Bft)
29.01.2008 05:38 20,7 C 2,5 C 91 % 1023 hPa 0,0 l/m 0,0 km/h (0 Bft)
29.01.2008 05:41 20,6 C 2,5 C 91 % 1023 hPa 0,0 l/m 0,0 km/h (0 Bft)
29.01.2008 05:44 20,7 C 2,3 C 91 % 1023 hPa 0,0 l/m 1,1 km/h (1 Bft)
29.01.2008 05:47 20,7 C 2,3 C 91 % 1023 hPa 0,0 l/m 0,0 km/h (0 Bft)
29.01.2008 05:50 20,6 C 2,3 C 91 % 1023 hPa 0,0 l/m 0,0 km/h (0 Bft)
29.01.2008 05:53 20,6 C 2,2 C 91 % 1023 hPa 0,0 l/m 0,0 km/h (0 Bft)
29.01.2008 05:56 20,6 C 2,2 C 91 % 1023 hPa 0,0 l/m 0,0 km/h (0 Bft)
29.01.2008 05:59 20,6 C 2,2 C 91 % 1023 hPa 0,0 l/m 0,0 km/h (0 Bft)
29.01.2008 06:02 20,6 C 2,2 C 91 % 1023 hPa 0,0 l/m 0,0 km/h (0 Bft)
29.01.2008 06:05 20,6 C 2,2 C 91 % 1023 hPa 0,0 l/m 0,0 km/h (0 Bft)
29.01.2008 06:08 20,6 C 2,1 C 92 % 1023 hPa 0,0 l/m 0,0 km/h (0 Bft)
29.01.2008 06:11 20,6 C 2,1 C 92 % 1023 hPa 0,0 l/m 0,0 km/h (0 Bft)
29.01.2008 06:14 20,6 C 2,1 C 91 % 1023 hPa 0,0 l/m 0,0 km/h (0 Bft)
29.01.2008 06:17 20,7 C 2,1 C 92 % 1023 hPa 0,0 l/m 0,1 km/h (0 Bft)
29.01.2008 06:20 20,7 C 2,1 C 92 % 1023 hPa 0,0 l/m 0,3 km/h (0 Bft)
29.01.2008 06:23 20,8 C 2,1 C 92 % 1023 hPa 0,0 l/m 0,1 km/h (0 Bft)
29.01.2008 06:26 20,8 C 2,1 C 91 % 1023 hPa 0,0 l/m 0,3 km/h (0 Bft)
29.01.2008 06:29 20,8 C 2,1 C 91 % 1023 hPa 0,0 l/m 0,2 km/h (0 Bft)
29.01.2008 06:32 20,8 C 2,1 C 92 % 1023 hPa 0,0 l/m 2,2 km/h (1 Bft)
29.01.2008 06:35 20,9 C 2,1 C 92 % 1023 hPa 0,0 l/m 0,2 km/h (0 Bft)
29.01.2008 06:38 20,9 C 2,1 C 92 % 1023 hPa 0,0 l/m 0,0 km/h (0 Bft)
29.01.2008 06:41 21,0 C 2,1 C 92 % 1023 hPa 0,0 l/m 0,0 km/h (0 Bft)
29.01.2008 06:44 21,0 C 1,9 C 91 % 1023 hPa 0,0 l/m 0,0 km/h (0 Bft)
29.01.2008 06:47 21,0 C 1,9 C 91 % 1023 hPa 0,0 l/m 0,0 km/h (0 Bft)
29.01.2008 06:50 21,1 C 1,9 C 92 % 1023 hPa 0,0 l/m 0,0 km/h (0 Bft)
29.01.2008 06:53 21,1 C 1,9 C 92 % 1023 hPa 0,0 l/m 0,0 km/h (0 Bft)
29.01.2008 06:56 21,2 C 1,9 C 92 % 1023 hPa 0,0 l/m 0,0 km/h (0 Bft)
29.01.2008 06:59 21,2 C 1,9 C 92 % 1023 hPa 0,0 l/m 0,0 km/h (0 Bft)
29.01.2008 07:02 21,2 C 2,0 C 92 % 1023 hPa 0,0 l/m 0,2 km/h (0 Bft)
29.01.2008 07:05 21,2 C 1,9 C 92 % 1023 hPa 0,0 l/m 0,0 km/h (0 Bft)
29.01.2008 07:08 21,2 C 1,9 C 92 % 1023 hPa 0,0 l/m 0,0 km/h (0 Bft)
29.01.2008 07:11 21,3 C 1,9 C 92 % 1023 hPa 0,0 l/m 0,0 km/h (0 Bft)
29.01.2008 07:14 21,3 C 1,8 C 92 % 1023 hPa 0,0 l/m 0,0 km/h (0 Bft)
29.01.2008 07:17 21,3 C 1,8 C 92 % 1023 hPa 0,0 l/m 0,1 km/h (0 Bft)
29.01.2008 07:20 21,3 C 1,8 C 92 % 1023 hPa 0,0 l/m 0,0 km/h (0 Bft)
29.01.2008 07:23 21,2 C 1,8 C 92 % 1023 hPa 0,0 l/m 0,0 km/h (0 Bft)
29.01.2008 07:26 21,2 C 1,8 C 92 % 1023 hPa 0,0 l/m 0,0 km/h (0 Bft)
29.01.2008 07:29 21,2 C 1,9 C 92 % 1023 hPa 0,0 l/m 0,0 km/h (0 Bft)
29.01.2008 07:32 21,2 C 1,9 C 92 % 1023 hPa 0,0 l/m 0,0 km/h (0 Bft)
29.01.2008 07:35 21,2 C 1,9 C 92 % 1023 hPa 0,0 l/m 0,0 km/h (0 Bft)
29.01.2008 07:38 21,2 C 1,9 C 92 % 1023 hPa 0,0 l/m 0,1 km/h (0 Bft)
29.01.2008 07:41 21,2 C 1,9 C 92 % 1024 hPa 0,0 l/m 0,0 km/h (0 Bft)
29.01.2008 07:44 21,2 C 1,9 C 92 % 1024 hPa 0,0 l/m 0,1 km/h (0 Bft)
29.01.2008 07:47 21,2 C 1,9 C 92 % 1024 hPa 0,0 l/m 0,0 km/h (0 Bft)
29.01.2008 07:50 21,2 C 1,9 C 92 % 1024 hPa 0,0 l/m 0,0 km/h (0 Bft)
29.01.2008 07:53 21,2 C 1,9 C 92 % 1024 hPa 0,0 l/m 0,0 km/h (0 Bft)
29.01.2008 07:56 21,2 C 1,9 C 92 % 1024 hPa 0,0 l/m 0,3 km/h (0 Bft)
29.01.2008 07:59 21,2 C 1,9 C 92 % 1023 hPa 0,0 l/m 0,0 km/h (0 Bft)
29.01.2008 08:02 21,2 C 1,9 C 92 % 1023 hPa 0,0 l/m 0,0 km/h (0 Bft)
29.01.2008 08:05 21,2 C 1,9 C 92 % 1023 hPa 0,0 l/m 0,0 km/h (0 Bft)
29.01.2008 08:08 21,2 C 1,9 C 92 % 1024 hPa 0,0 l/m 0,3 km/h (0 Bft)
29.01.2008 08:11 21,2 C 1,9 C 92 % 1023 hPa 0,0 l/m 0,0 km/h (0 Bft)
29.01.2008 08:14 21,2 C 1,8 C 92 % 1024 hPa 0,0 l/m 0,0 km/h (0 Bft)
29.01.2008 08:17 21,2 C 1,8 C 92 % 1024 hPa 0,0 l/m 0,0 km/h (0 Bft)
29.01.2008 08:20 21,1 C 1,9 C 92 % 1024 hPa 0,0 l/m 0,0 km/h (0 Bft)
29.01.2008 08:23 21,1 C 1,9 C 92 % 1024 hPa 0,0 l/m 0,0 km/h (0 Bft)
29.01.2008 08:26 21,2 C 1,9 C 92 % 1024 hPa 0,0 l/m 0,0 km/h (0 Bft)
29.01.2008 08:29 21,1 C 1,8 C 92 % 1024 hPa 0,0 l/m 0,3 km/h (0 Bft)
29.01.2008 08:32 21,1 C 1,8 C 92 % 1024 hPa 0,0 l/m 1,2 km/h (1 Bft)
29.01.2008 08:35 21,1 C 1,8 C 92 % 1024 hPa 0,0 l/m 1,2 km/h (1 Bft)
29.01.2008 08:38 21,1 C 1,9 C 92 % 1024 hPa 0,0 l/m 3,1 km/h (1 Bft)
29.01.2008 08:41 21,1 C 1,9 C 92 % 1024 hPa 0,0 l/m 0,3 km/h (0 Bft)
29.01.2008 08:44 21,1 C 1,9 C 92 % 1024 hPa 0,0 l/m 0,1 km/h (0 Bft)
29.01.2008 08:47 21,2 C 1,9 C 92 % 1024 hPa 0,0 l/m 0,1 km/h (0 Bft)
29.01.2008 08:50 21,1 C 1,9 C 92 % 1024 hPa 0,0 l/m 1,6 km/h (1 Bft)
29.01.2008 08:53 21,1 C 1,9 C 92 % 1024 hPa 0,0 l/m 2,2 km/h (1 Bft)
29.01.2008 08:56 21,1 C 2,0 C 92 % 1024 hPa 0,0 l/m 2,7 km/h (1 Bft)
29.01.2008 08:59 21,1 C 2,1 C 92 % 1024 hPa 0,0 l/m 0,7 km/h (0 Bft)
29.01.2008 09:02 21,1 C 2,1 C 92 % 1024 hPa 0,0 l/m 0,5 km/h (0 Bft)
29.01.2008 09:05 21,1 C 2,1 C 92 % 1024 hPa 0,0 l/m 0,0 km/h (0 Bft)
29.01.2008 09:08 21,1 C 2,1 C 92 % 1024 hPa 0,0 l/m 0,0 km/h (0 Bft)
29.01.2008 09:11 21,1 C 2,1 C 92 % 1024 hPa 0,0 l/m 0,0 km/h (0 Bft)
29.01.2008 09:14 21,1 C 2,1 C 92 % 1024 hPa 0,0 l/m 0,0 km/h (0 Bft)
29.01.2008 09:17 21,1 C 2,2 C 92 % 1024 hPa 0,0 l/m 0,0 km/h (0 Bft)
29.01.2008 09:20 21,1 C 2,2 C 92 % 1024 hPa 0,0 l/m 0,1 km/h (0 Bft)
29.01.2008 09:23 21,1 C 2,2 C 92 % 1024 hPa 0,0 l/m 0,0 km/h (0 Bft)
29.01.2008 09:26 21,1 C 2,3 C 92 % 1024 hPa 0,0 l/m 0,0 km/h (0 Bft)
29.01.2008 09:29 21,0 C 2,3 C 92 % 1024 hPa 0,0 l/m 0,3 km/h (0 Bft)
29.01.2008 09:32 21,1 C 2,3 C 92 % 1024 hPa 0,0 l/m 0,0 km/h (0 Bft)
29.01.2008 09:35 21,1 C 2,3 C 92 % 1024 hPa 0,0 l/m 0,0 km/h (0 Bft)
29.01.2008 09:38 21,1 C 2,3 C 92 % 1024 hPa 0,0 l/m 0,0 km/h (0 Bft)
29.01.2008 09:41 21,0 C 2,3 C 92 % 1024 hPa 0,0 l/m 0,0 km/h (0 Bft)
29.01.2008 09:44 21,0 C 2,3 C 92 % 1024 hPa 0,0 l/m 0,0 km/h (0 Bft)
29.01.2008 09:47 21,1 C 2,3 C 92 % 1024 hPa 0,0 l/m 0,0 km/h (0 Bft)
29.01.2008 09:50 21,1 C 2,3 C 92 % 1024 hPa 0,0 l/m 0,0 km/h (0 Bft)
29.01.2008 09:53 21,1 C 2,4 C 92 % 1024 hPa 0,0 l/m 0,0 km/h (0 Bft)
29.01.2008 09:56 21,1 C 2,3 C 92 % 1024 hPa 0,0 l/m 0,0 km/h (0 Bft)
29.01.2008 09:59 21,1 C 2,3 C 92 % 1024 hPa 0,0 l/m 0,1 km/h (0 Bft)
29.01.2008 10:02 21,1 C 2,6 C 92 % 1024 hPa 0,0 l/m 0,3 km/h (0 Bft)
29.01.2008 10:05 21,1 C 2,7 C 92 % 1024 hPa 0,0 l/m 0,2 km/h (0 Bft)
29.01.2008 10:08 21,1 C 2,7 C 92 % 1024 hPa 0,0 l/m 0,1 km/h (0 Bft)
29.01.2008 10:10 21,1 C 2,8 C 92 % 1024 hPa 0,0 l/m 0,3 km/h (0 Bft)
29.01.2008 10:13 21,1 C 2,8 C 92 % 1024 hPa 0,0 l/m 3,1 km/h (1 Bft)
29.01.2008 10:16 21,1 C 2,9 C 92 % 1024 hPa 0,0 l/m 0,0 km/h (0 Bft)
29.01.2008 10:19 21,1 C 2,9 C 92 % 1024 hPa 0,0 l/m 0,1 km/h (0 Bft)
29.01.2008 10:22 21,1 C 2,9 C 92 % 1024 hPa 0,0 l/m 0,1 km/h (0 Bft)
29.01.2008 10:25 21,1 C 2,9 C 91 % 1024 hPa 0,0 l/m 0,0 km/h (0 Bft)
29.01.2008 10:28 21,1 C 3,1 C 91 % 1024 hPa 0,0 l/m 0,0 km/h (0 Bft)
29.01.2008 10:31 21,1 C 3,1 C 91 % 1024 hPa 0,0 l/m 0,0 km/h (0 Bft)
29.01.2008 10:34 21,1 C 3,1 C 91 % 1024 hPa 0,0 l/m 0,1 km/h (0 Bft)
29.01.2008 10:37 21,1 C 3,1 C 91 % 1024 hPa 0,0 l/m 0,0 km/h (0 Bft)
29.01.2008 10:40 21,1 C 3,1 C 91 % 1024 hPa 0,0 l/m 0,0 km/h (0 Bft)
29.01.2008 10:43 21,1 C 3,1 C 91 % 1024 hPa 0,0 l/m 0,0 km/h (0 Bft)
29.01.2008 10:46 21,0 C 3,1 C 91 % 1024 hPa 0,0 l/m 0,0 km/h (0 Bft)
29.01.2008 10:49 21,1 C 3,3 C 91 % 1024 hPa 0,0 l/m 5,6 km/h (1 Bft)
29.01.2008 10:52 21,1 C 3,3 C 91 % 1024 hPa 0,0 l/m 3,5 km/h (1 Bft)
29.01.2008 10:55 21,0 C 3,4 C 91 % 1024 hPa 0,0 l/m 3,0 km/h (1 Bft)
29.01.2008 10:58 21,0 C 3,5 C 91 % 1024 hPa 0,0 l/m 1,8 km/h (1 Bft)
29.01.2008 11:01 21,0 C 3,5 C 91 % 1024 hPa 0,0 l/m 1,3 km/h (1 Bft)
29.01.2008 11:04 21,0 C 3,5 C 91 % 1024 hPa 0,0 l/m 0,1 km/h (0 Bft)
29.01.2008 11:07 21,0 C 3,5 C 91 % 1024 hPa 0,0 l/m 0,4 km/h (0 Bft)
29.01.2008 11:10 21,0 C 3,5 C 91 % 1024 hPa 0,0 l/m 0,0 km/h (0 Bft)
29.01.2008 11:13 21,1 C 3,6 C 91 % 1024 hPa 0,0 l/m 0,1 km/h (0 Bft)
29.01.2008 11:16 21,0 C 3,7 C 91 % 1024 hPa 0,0 l/m 0,3 km/h (0 Bft)
29.01.2008 11:19 21,0 C 3,8 C 91 % 1024 hPa 0,0 l/m 0,1 km/h (0 Bft)
29.01.2008 11:22 21,1 C 3,7 C 90 % 1024 hPa 0,0 l/m 2,5 km/h (1 Bft)
29.01.2008 11:25 21,0 C 3,7 C 90 % 1024 hPa 0,0 l/m 0,1 km/h (0 Bft)
29.01.2008 11:28 21,0 C 3,7 C 90 % 1024 hPa 0,0 l/m 0,0 km/h (0 Bft)
29.01.2008 11:31 21,0 C 3,8 C 90 % 1024 hPa 0,0 l/m 0,0 km/h (0 Bft)
29.01.2008 11:34 21,0 C 3,7 C 90 % 1024 hPa 0,0 l/m 0,0 km/h (0 Bft)
29.01.2008 11:37 21,0 C 3,7 C 90 % 1024 hPa 0,0 l/m 0,0 km/h (0 Bft)
29.01.2008 11:40 21,0 C 3,9 C 90 % 1024 hPa 0,0 l/m 0,0 km/h (0 Bft)
29.01.2008 11:43 21,0 C 3,9 C 90 % 1024 hPa 0,0 l/m 0,0 km/h (0 Bft)
29.01.2008 11:46 21,0 C 3,9 C 90 % 1023 hPa 0,0 l/m 0,0 km/h (0 Bft)
29.01.2008 11:49 21,0 C 4,2 C 90 % 1023 hPa 0,0 l/m 0,0 km/h (0 Bft)
29.01.2008 11:52 21,0 C 4,2 C 90 % 1023 hPa 0,0 l/m 0,0 km/h (0 Bft)
29.01.2008 11:55 21,0 C 4,2 C 90 % 1023 hPa 0,0 l/m 0,0 km/h (0 Bft)
29.01.2008 11:58 21,0 C 4,2 C 90 % 1023 hPa 0,0 l/m 0,0 km/h (0 Bft)
29.01.2008 12:01 21,0 C 4,2 C 90 % 1023 hPa 0,0 l/m 0,0 km/h (0 Bft)
29.01.2008 12:12 21,0 C 4,5 C 90 % 1023 hPa 0,0 l/m 0,0 km/h (0 Bft)
29.01.2008 12:15 21,0 C 4,6 C 89 % 1023 hPa 0,0 l/m 0,0 km/h (0 Bft)
29.01.2008 12:18 21,0 C 4,7 C 89 % 1023 hPa 0,0 l/m 0,0 km/h (0 Bft)
29.01.2008 12:21 21,0 C 4,7 C 89 % 1023 hPa 0,0 l/m 0,0 km/h (0 Bft)
29.01.2008 12:24 21,0 C 4,7 C 89 % 1023 hPa 0,0 l/m 1,0 km/h (0 Bft)
29.01.2008 12:27 21,0 C 4,9 C 88 % 1023 hPa 0,0 l/m 0,1 km/h (0 Bft)
29.01.2008 12:29 21,1 C 5,1 C 87 % 1023 hPa 0,0 l/m 0,0 km/h (0 Bft)
29.01.2008 12:32 21,1 C 5,1 C 87 % 1023 hPa 0,0 l/m 0,0 km/h (0 Bft)
29.01.2008 12:35 21,1 C 5,1 C 87 % 1023 hPa 0,0 l/m 0,1 km/h (0 Bft)
29.01.2008 12:38 21,2 C 5,4 C 88 % 1023 hPa 0,0 l/m 0,2 km/h (0 Bft)
29.01.2008 12:41 21,3 C 5,5 C 88 % 1023 hPa 0,0 l/m 0,0 km/h (0 Bft)
29.01.2008 12:44 21,3 C 5,6 C 88 % 1023 hPa 0,0 l/m 0,0 km/h (0 Bft)
29.01.2008 12:47 21,4 C 5,6 C 88 % 1023 hPa 0,0 l/m 0,1 km/h (0 Bft)
29.01.2008 12:50 21,3 C 5,9 C 87 % 1023 hPa 0,0 l/m 3,4 km/h (1 Bft)
29.01.2008 12:53 21,4 C 6,0 C 87 % 1023 hPa 0,0 l/m 3,7 km/h (1 Bft)
29.01.2008 12:56 21,4 C 6,0 C 87 % 1023 hPa 0,0 l/m 0,5 km/h (0 Bft)
29.01.2008 12:59 21,4 C 6,0 C 87 % 1023 hPa 0,0 l/m 0,1 km/h (0 Bft)
29.01.2008 13:02 21,5 C 6,0 C 87 % 1022 hPa 0,0 l/m 0,0 km/h (0 Bft)
29.01.2008 13:05 21,5 C 6,0 C 86 % 1022 hPa 0,0 l/m 4,2 km/h (1 Bft)
29.01.2008 13:08 21,6 C 6,0 C 86 % 1022 hPa 0,0 l/m 5,0 km/h (1 Bft)
29.01.2008 13:11 21,6 C 6,3 C 87 % 1022 hPa 0,0 l/m 4,3 km/h (1 Bft)
29.01.2008 13:14 21,6 C 6,3 C 87 % 1022 hPa 0,0 l/m 3,4 km/h (1 Bft)
29.01.2008 13:17 21,7 C 6,3 C 87 % 1022 hPa 0,0 l/m 3,5 km/h (1 Bft)
29.01.2008 13:20 21,7 C 6,5 C 86 % 1022 hPa 0,0 l/m 2,5 km/h (1 Bft)
29.01.2008 13:23 21,8 C 6,4 C 85 % 1022 hPa 0,0 l/m 4,6 km/h (1 Bft)
29.01.2008 13:26 21,8 C 6,4 C 85 % 1022 hPa 0,0 l/m 3,8 km/h (1 Bft)
29.01.2008 13:29 21,8 C 6,4 C 85 % 1022 hPa 0,0 l/m 3,3 km/h (1 Bft)
29.01.2008 13:32 21,9 C 6,4 C 86 % 1022 hPa 0,0 l/m 1,1 km/h (1 Bft)
29.01.2008 13:35 21,9 C 6,4 C 86 % 1022 hPa 0,0 l/m 1,1 km/h (1 Bft)
29.01.2008 13:38 21,9 C 6,4 C 85 % 1022 hPa 0,0 l/m 0,9 km/h (0 Bft)
29.01.2008 13:41 22,0 C 6,4 C 86 % 1022 hPa 0,0 l/m 3,3 km/h (1 Bft)
29.01.2008 13:44 22,0 C 6,4 C 85 % 1022 hPa 0,0 l/m 3,5 km/h (1 Bft)
29.01.2008 13:47 22,0 C 6,6 C 85 % 1022 hPa 0,0 l/m 5,2 km/h (1 Bft)
29.01.2008 13:50 22,0 C 6,6 C 85 % 1022 hPa 0,0 l/m 0,3 km/h (0 Bft)
29.01.2008 13:53 22,0 C 6,6 C 85 % 1022 hPa 0,0 l/m 0,7 km/h (0 Bft)
29.01.2008 13:56 22,0 C 6,6 C 85 % 1022 hPa 0,0 l/m 3,2 km/h (1 Bft)
29.01.2008 13:59 22,0 C 6,7 C 84 % 1022 hPa 0,0 l/m 4,6 km/h (1 Bft)
29.01.2008 14:02 22,0 C 6,8 C 85 % 1022 hPa 0,0 l/m 3,5 km/h (1 Bft)
29.01.2008 14:05 22,0 C 6,8 C 85 % 1022 hPa 0,0 l/m 2,4 km/h (1 Bft)
29.01.2008 14:08 21,9 C 6,8 C 84 % 1022 hPa 0,0 l/m 0,8 km/h (0 Bft)
29.01.2008 14:11 22,0 C 6,8 C 84 % 1022 hPa 0,0 l/m 4,1 km/h (1 Bft)
29.01.2008 14:14 22,0 C 6,8 C 84 % 1022 hPa 0,0 l/m 4,0 km/h (1 Bft)
29.01.2008 14:17 22,0 C 6,8 C 84 % 1022 hPa 0,0 l/m 4,5 km/h (1 Bft)
29.01.2008 14:20 22,0 C 6,8 C 84 % 1022 hPa 0,0 l/m 3,9 km/h (1 Bft)
29.01.2008 14:23 22,1 C 6,9 C 84 % 1022 hPa 0,0 l/m 3,8 km/h (1 Bft)
29.01.2008 14:26 22,1 C 7,0 C 83 % 1022 hPa 0,0 l/m 5,2 km/h (1 Bft)
29.01.2008 14:29 22,1 C 7,0 C 83 % 1022 hPa 0,0 l/m 4,4 km/h (1 Bft)
29.01.2008 14:32 22,1 C 7,1 C 83 % 1022 hPa 0,0 l/m 4,5 km/h (1 Bft)
29.01.2008 14:36 22,1 C 7,2 C 83 % 1022 hPa 0,0 l/m 2,7 km/h (1 Bft)
29.01.2008 14:39 22,1 C 7,2 C 83 % 1021 hPa 0,0 l/m 0,4 km/h (0 Bft)
29.01.2008 14:42 22,0 C 7,2 C 83 % 1021 hPa 0,0 l/m 3,7 km/h (1 Bft)
29.01.2008 14:45 22,1 C 7,2 C 83 % 1021 hPa 0,0 l/m 4,5 km/h (1 Bft)
29.01.2008 14:48 22,0 C 7,2 C 82 % 1021 hPa 0,0 l/m 4,5 km/h (1 Bft)
29.01.2008 14:51 22,1 C 7,2 C 82 % 1021 hPa 0,0 l/m 2,9 km/h (1 Bft)
29.01.2008 14:54 22,0 C 7,3 C 81 % 1021 hPa 0,0 l/m 1,3 km/h (1 Bft)
29.01.2008 14:57 22,0 C 7,3 C 82 % 1021 hPa 0,0 l/m 4,2 km/h (1 Bft)
29.01.2008 15:00 22,0 C 7,3 C 81 % 1021 hPa 0,0 l/m 3,9 km/h (1 Bft)
29.01.2008 15:03 22,0 C 7,3 C 81 % 1021 hPa 0,0 l/m 5,7 km/h (1 Bft)
29.01.2008 15:06 22,0 C 7,3 C 81 % 1021 hPa 0,0 l/m 5,0 km/h (1 Bft)
29.01.2008 15:09 22,1 C 7,4 C 80 % 1021 hPa 0,0 l/m 7,0 km/h (2 Bft)
29.01.2008 15:12 22,1 C 7,4 C 80 % 1021 hPa 0,0 l/m 5,6 km/h (1 Bft)
29.01.2008 15:15 22,1 C 7,4 C 81 % 1021 hPa 0,0 l/m 5,3 km/h (1 Bft)
29.01.2008 15:18 22,1 C 7,4 C 81 % 1021 hPa 0,0 l/m 5,3 km/h (1 Bft)
29.01.2008 15:21 22,0 C 7,4 C 79 % 1021 hPa 0,0 l/m 6,6 km/h (2 Bft)
29.01.2008 15:24 22,0 C 7,4 C 79 % 1021 hPa 0,0 l/m 7,3 km/h (2 Bft)
29.01.2008 15:27 22,0 C 7,4 C 79 % 1021 hPa 0,0 l/m 4,8 km/h (1 Bft)
29.01.2008 15:30 22,1 C 7,4 C 79 % 1021 hPa 0,0 l/m 7,2 km/h (2 Bft)
29.01.2008 15:33 22,0 C 7,4 C 79 % 1021 hPa 0,0 l/m 5,3 km/h (1 Bft)
29.01.2008 15:36 22,0 C 7,4 C 79 % 1021 hPa 0,0 l/m 5,6 km/h (1 Bft)
29.01.2008 15:39 22,0 C 7,3 C 79 % 1021 hPa 0,0 l/m 3,6 km/h (1 Bft)
29.01.2008 15:42 22,0 C 7,3 C 79 % 1021 hPa 0,0 l/m 5,2 km/h (1 Bft)
29.01.2008 15:45 22,0 C 7,3 C 78 % 1021 hPa 0,0 l/m 4,4 km/h (1 Bft)
29.01.2008 15:48 22,0 C 7,3 C 79 % 1021 hPa 0,0 l/m 4,4 km/h (1 Bft)
29.01.2008 15:51 22,1 C 7,4 C 79 % 1021 hPa 0,0 l/m 4,2 km/h (1 Bft)
29.01.2008 15:54 22,0 C 7,3 C 78 % 1021 hPa 0,0 l/m 4,5 km/h (1 Bft)
29.01.2008 15:57 22,1 C 7,3 C 78 % 1021 hPa 0,0 l/m 4,6 km/h (1 Bft)
29.01.2008 16:00 22,1 C 7,3 C 78 % 1021 hPa 0,0 l/m 3,5 km/h (1 Bft)
29.01.2008 16:03 22,1 C 7,5 C 79 % 1021 hPa 0,0 l/m 1,7 km/h (1 Bft)
29.01.2008 16:06 22,1 C 7,5 C 79 % 1021 hPa 0,0 l/m 2,7 km/h (1 Bft)
29.01.2008 16:09 22,1 C 7,5 C 79 % 1021 hPa 0,0 l/m 2,9 km/h (1 Bft)
29.01.2008 16:12 22,2 C 7,5 C 79 % 1021 hPa 0,0 l/m 1,9 km/h (1 Bft)
29.01.2008 16:15 22,1 C 7,6 C 78 % 1021 hPa 0,0 l/m 4,4 km/h (1 Bft)
29.01.2008 16:18 22,1 C 7,6 C 78 % 1021 hPa 0,0 l/m 4,9 km/h (1 Bft)
29.01.2008 16:21 22,0 C 7,6 C 78 % 1021 hPa 0,0 l/m 4,0 km/h (1 Bft)
29.01.2008 16:24 22,0 C 7,6 C 78 % 1021 hPa 0,0 l/m 6,5 km/h (2 Bft)
29.01.2008 16:27 22,0 C 7,6 C 76 % 1021 hPa 0,0 l/m 7,9 km/h (2 Bft)
29.01.2008 16:30 22,0 C 7,6 C 76 % 1021 hPa 0,0 l/m 10,7 km/h (2 Bft)
29.01.2008 16:33 22,0 C 7,4 C 73 % 1021 hPa 0,0 l/m 9,8 km/h (2 Bft)
29.01.2008 16:36 22,0 C 7,4 C 73 % 1021 hPa 0,0 l/m 5,3 km/h (1 Bft)
29.01.2008 16:39 22,0 C 7,4 C 73 % 1021 hPa 0,0 l/m 5,2 km/h (1 Bft)
29.01.2008 16:42 22,0 C 7,4 C 73 % 1021 hPa 0,0 l/m 6,5 km/h (2 Bft)
29.01.2008 16:45 22,0 C 7,2 C 71 % 1021 hPa 0,0 l/m 6,1 km/h (2 Bft)
29.01.2008 16:48 22,0 C 7,2 C 71 % 1021 hPa 0,0 l/m 8,1 km/h (2 Bft)
29.01.2008 16:51 22,0 C 7,2 C 72 % 1021 hPa 0,0 l/m 10,8 km/h (2 Bft)
29.01.2008 16:54 22,0 C 7,1 C 72 % 1021 hPa 0,0 l/m 7,5 km/h (2 Bft)
29.01.2008 16:57 22,0 C 7,0 C 72 % 1021 hPa 0,0 l/m 7,7 km/h (2 Bft)
29.01.2008 17:00 22,0 C 7,0 C 72 % 1021 hPa 0,0 l/m 2,7 km/h (1 Bft)
29.01.2008 17:03 22,0 C 7,0 C 72 % 1021 hPa 0,0 l/m 3,8 km/h (1 Bft)
29.01.2008 17:06 22,0 C 7,0 C 72 % 1021 hPa 0,0 l/m 5,4 km/h (1 Bft)
29.01.2008 17:09 22,0 C 6,4 C 74 % 1021 hPa 0,0 l/m 1,6 km/h (1 Bft)
29.01.2008 17:12 22,0 C 6,2 C 75 % 1021 hPa 0,0 l/m 0,3 km/h (0 Bft)
29.01.2008 17:15 22,0 C 6,0 C 75 % 1021 hPa 0,0 l/m 4,0 km/h (1 Bft)
29.01.2008 17:18 22,0 C 6,0 C 75 % 1021 hPa 0,0 l/m 3,9 km/h (1 Bft)
29.01.2008 17:21 22,0 C 5,6 C 76 % 1021 hPa 0,0 l/m 5,1 km/h (1 Bft)
29.01.2008 17:24 22,0 C 5,4 C 76 % 1021 hPa 0,0 l/m 1,8 km/h (1 Bft)
29.01.2008 17:27 22,0 C 5,4 C 76 % 1021 hPa 0,0 l/m 3,4 km/h (1 Bft)
29.01.2008 17:30 22,0 C 5,2 C 77 % 1021 hPa 0,0 l/m 5,0 km/h (1 Bft)
29.01.2008 17:33 21,9 C 5,2 C 77 % 1021 hPa 0,0 l/m 4,6 km/h (1 Bft)
29.01.2008 17:36 22,0 C 5,2 C 77 % 1021 hPa 0,0 l/m 0,1 km/h (0 Bft)
29.01.2008 17:39 22,0 C 4,7 C 78 % 1021 hPa 0,0 l/m 0,1 km/h (0 Bft)
29.01.2008 17:42 22,0 C 4,7 C 78 % 1021 hPa 0,0 l/m 1,8 km/h (1 Bft)
29.01.2008 17:45 22,0 C 4,6 C 79 % 1021 hPa 0,0 l/m 1,9 km/h (1 Bft)
29.01.2008 17:48 22,0 C 4,5 C 79 % 1021 hPa 0,0 l/m 3,2 km/h (1 Bft)
29.01.2008 17:51 22,0 C 4,5 C 79 % 1021 hPa 0,0 l/m 4,8 km/h (1 Bft)
29.01.2008 17:54 22,0 C 4,3 C 80 % 1021 hPa 0,0 l/m 1,8 km/h (1 Bft)
29.01.2008 17:57 22,0 C 4,3 C 80 % 1021 hPa 0,0 l/m 5,4 km/h (1 Bft)
29.01.2008 18:00 21,9 C 4,3 C 80 % 1021 hPa 0,0 l/m 3,0 km/h (1 Bft)
29.01.2008 18:03 21,9 C 4,3 C 81 % 1021 hPa 0,0 l/m 4,8 km/h (1 Bft)
29.01.2008 18:06 21,9 C 4,3 C 81 % 1021 hPa 0,0 l/m 4,1 km/h (1 Bft)
29.01.2008 18:09 22,0 C 4,3 C 81 % 1021 hPa 0,0 l/m 1,8 km/h (1 Bft)
29.01.2008 18:12 22,0 C 4,3 C 81 % 1021 hPa 0,0 l/m 4,2 km/h (1 Bft)
29.01.2008 18:15 22,0 C 4,3 C 81 % 1021 hPa 0,0 l/m 4,8 km/h (1 Bft)
29.01.2008 18:18 22,0 C 4,3 C 82 % 1021 hPa 0,0 l/m 5,0 km/h (1 Bft)
29.01.2008 18:21 22,0 C 4,3 C 82 % 1021 hPa 0,0 l/m 4,5 km/h (1 Bft)
29.01.2008 18:24 22,0 C 4,2 C 82 % 1021 hPa 0,0 l/m 4,5 km/h (1 Bft)
29.01.2008 18:27 22,1 C 4,2 C 82 % 1021 hPa 0,0 l/m 4,6 km/h (1 Bft)
29.01.2008 18:30 22,0 C 4,1 C 82 % 1020 hPa 0,0 l/m 5,4 km/h (1 Bft)
29.01.2008 18:33 22,1 C 4,0 C 82 % 1020 hPa 0,0 l/m 5,0 km/h (1 Bft)
29.01.2008 18:36 22,1 C 4,0 C 82 % 1020 hPa 0,0 l/m 0,2 km/h (0 Bft)
29.01.2008 18:39 22,0 C 3,8 C 82 % 1020 hPa 0,0 l/m 0,3 km/h (0 Bft)
29.01.2008 18:42 22,0 C 3,8 C 82 % 1020 hPa 0,0 l/m 1,2 km/h (1 Bft)
29.01.2008 18:45 22,0 C 3,5 C 82 % 1020 hPa 0,0 l/m 0,6 km/h (0 Bft)
29.01.2008 18:48 22,0 C 3,4 C 82 % 1020 hPa 0,0 l/m 0,1 km/h (0 Bft)
29.01.2008 18:51 22,0 C 3,3 C 83 % 1020 hPa 0,0 l/m 1,2 km/h (1 Bft)
29.01.2008 18:54 22,0 C 3,3 C 83 % 1021 hPa 0,0 l/m 3,5 km/h (1 Bft)
29.01.2008 18:57 22,1 C 3,3 C 83 % 1021 hPa 0,0 l/m 1,8 km/h (1 Bft)
29.01.2008 19:00 22,2 C 3,3 C 83 % 1020 hPa 0,0 l/m 2,2 km/h (1 Bft)
29.01.2008 19:03 22,3 C 3,0 C 83 % 1020 hPa 0,0 l/m 0,7 km/h (0 Bft)
29.01.2008 19:06 22,3 C 2,9 C 83 % 1020 hPa 0,0 l/m 2,1 km/h (1 Bft)
29.01.2008 19:09 22,4 C 2,8 C 83 % 1020 hPa 0,0 l/m 2,4 km/h (1 Bft)
29.01.2008 19:12 22,4 C 2,7 C 84 % 1020 hPa 0,0 l/m 3,5 km/h (1 Bft)
29.01.2008 19:15 22,4 C 2,7 C 84 % 1020 hPa 0,0 l/m 3,5 km/h (1 Bft)
29.01.2008 19:18 22,4 C 2,4 C 84 % 1020 hPa 0,0 l/m 1,3 km/h (1 Bft)
29.01.2008 19:21 22,4 C 2,4 C 84 % 1020 hPa 0,0 l/m 3,6 km/h (1 Bft)
29.01.2008 19:24 22,4 C 2,3 C 85 % 1020 hPa 0,0 l/m 1,0 km/h (0 Bft)
29.01.2008 19:27 22,4 C 2,3 C 85 % 1020 hPa 0,0 l/m 0,0 km/h (0 Bft)
29.01.2008 19:30 22,4 C 2,3 C 85 % 1020 hPa 0,0 l/m 0,0 km/h (0 Bft)
29.01.2008 19:32 22,1 C 2,2 C 85 % 1020 hPa 0,0 l/m 0,0 km/h (0 Bft)
29.01.2008 19:35 22,0 C 2,2 C 85 % 1020 hPa 0,0 l/m 0,0 km/h (0 Bft)
29.01.2008 19:38 22,0 C 2,2 C 85 % 1020 hPa 0,0 l/m 0,3 km/h (0 Bft)
29.01.2008 19:41 22,0 C 2,2 C 85 % 1020 hPa 0,0 l/m 3,7 km/h (1 Bft)
29.01.2008 19:44 22,0 C 1,9 C 85 % 1020 hPa 0,0 l/m 2,5 km/h (1 Bft)
29.01.2008 19:47 22,1 C 1,9 C 85 % 1020 hPa 0,0 l/m 1,1 km/h (1 Bft)
29.01.2008 19:50 22,1 C 1,9 C 86 % 1020 hPa 0,0 l/m 1,0 km/h (0 Bft)
29.01.2008 19:53 22,2 C 1,9 C 86 % 1020 hPa 0,0 l/m 0,0 km/h (0 Bft)
29.01.2008 19:56 22,2 C 1,9 C 86 % 1020 hPa 0,0 l/m 0,0 km/h (0 Bft)
29.01.2008 19:59 22,2 C 1,9 C 86 % 1020 hPa 0,0 l/m 0,0 km/h (0 Bft)
29.01.2008 20:02 22,2 C 1,9 C 86 % 1020 hPa 0,0 l/m 0,0 km/h (0 Bft)
29.01.2008 20:05 22,2 C 2,0 C 86 % 1020 hPa 0,0 l/m 0,0 km/h (0 Bft)
29.01.2008 20:08 22,2 C 1,9 C 86 % 1020 hPa 0,0 l/m 0,0 km/h (0 Bft)
29.01.2008 20:11 22,2 C 1,9 C 86 % 1020 hPa 0,0 l/m 0,0 km/h (0 Bft)
29.01.2008 20:14 22,2 C 1,9 C 86 % 1020 hPa 0,0 l/m 0,7 km/h (0 Bft)
29.01.2008 20:17 22,2 C 1,8 C 86 % 1020 hPa 0,0 l/m 4,3 km/h (1 Bft)
29.01.2008 20:20 22,2 C 1,8 C 86 % 1020 hPa 0,0 l/m 3,1 km/h (1 Bft)
29.01.2008 20:23 22,2 C 1,6 C 86 % 1020 hPa 0,0 l/m 0,2 km/h (0 Bft)
29.01.2008 20:26 22,2 C 1,6 C 86 % 1020 hPa 0,0 l/m 0,0 km/h (0 Bft)
29.01.2008 20:29 22,2 C 1,6 C 87 % 1020 hPa 0,0 l/m 0,0 km/h (0 Bft)
29.01.2008 20:32 22,2 C 1,5 C 87 % 1020 hPa 0,0 l/m 0,0 km/h (0 Bft)
29.01.2008 20:35 22,1 C 1,6 C 87 % 1020 hPa 0,0 l/m 0,0 km/h (0 Bft)
29.01.2008 20:38 22,1 C 1,6 C 87 % 1020 hPa 0,0 l/m 0,0 km/h (0 Bft)
29.01.2008 20:41 22,1 C 1,7 C 87 % 1020 hPa 0,0 l/m 0,0 km/h (0 Bft)
29.01.2008 20:44 22,1 C 1,7 C 87 % 1020 hPa 0,0 l/m 0,0 km/h (0 Bft)
29.01.2008 20:47 22,1 C 1,7 C 87 % 1020 hPa 0,0 l/m 0,0 km/h (0 Bft)
29.01.2008 20:50 22,1 C 1,7 C 87 % 1020 hPa 0,0 l/m 0,0 km/h (0 Bft)
29.01.2008 20:53 22,1 C 1,8 C 87 % 1019 hPa 0,0 l/m 0,0 km/h (0 Bft)
29.01.2008 20:56 22,1 C 1,8 C 87 % 1020 hPa 0,0 l/m 0,0 km/h (0 Bft)
29.01.2008 20:59 22,1 C 1,8 C 87 % 1020 hPa 0,0 l/m 0,0 km/h (0 Bft)
29.01.2008 21:02 22,1 C 1,8 C 87 % 1020 hPa 0,0 l/m 0,0 km/h (0 Bft)
29.01.2008 21:05 22,1 C 1,8 C 87 % 1019 hPa 0,0 l/m 0,0 km/h (0 Bft)
29.01.2008 21:08 22,1 C 1,8 C 87 % 1019 hPa 0,0 l/m 0,0 km/h (0 Bft)
29.01.2008 21:11 22,1 C 1,8 C 87 % 1019 hPa 0,0 l/m 0,0 km/h (0 Bft)
29.01.2008 21:14 22,1 C 1,8 C 87 % 1019 hPa 0,0 l/m 0,0 km/h (0 Bft)
29.01.2008 21:17 22,1 C 1,7 C 87 % 1019 hPa 0,0 l/m 0,0 km/h (0 Bft)
29.01.2008 21:20 22,1 C 1,8 C 87 % 1019 hPa 0,0 l/m 0,0 km/h (0 Bft)
29.01.2008 21:23 22,1 C 1,8 C 87 % 1019 hPa 0,0 l/m 0,0 km/h (0 Bft)
29.01.2008 21:26 22,1 C 1,8 C 87 % 1019 hPa 0,0 l/m 0,0 km/h (0 Bft)
29.01.2008 21:29 22,1 C 1,8 C 87 % 1019 hPa 0,0 l/m 0,0 km/h (0 Bft)
29.01.2008 21:32 22,1 C 1,8 C 87 % 1019 hPa 0,0 l/m 0,0 km/h (0 Bft)
29.01.2008 21:35 22,1 C 1,7 C 87 % 1019 hPa 0,0 l/m 0,0 km/h (0 Bft)
29.01.2008 21:38 22,1 C 1,7 C 87 % 1019 hPa 0,0 l/m 0,0 km/h (0 Bft)
29.01.2008 21:41 22,1 C 1,6 C 87 % 1019 hPa 0,0 l/m 0,0 km/h (0 Bft)
29.01.2008 21:44 22,1 C 1,6 C 87 % 1019 hPa 0,0 l/m 0,0 km/h (0 Bft)
29.01.2008 21:47 22,1 C 1,6 C 88 % 1019 hPa 0,0 l/m 0,0 km/h (0 Bft)
29.01.2008 21:51 22,1 C 1,5 C 88 % 1019 hPa 0,0 l/m 0,0 km/h (0 Bft)
29.01.2008 21:54 22,1 C 1,5 C 88 % 1019 hPa 0,0 l/m 0,0 km/h (0 Bft)
29.01.2008 21:57 22,1 C 1,5 C 88 % 1019 hPa 0,0 l/m 0,0 km/h (0 Bft)
29.01.2008 22:00 22,0 C 1,5 C 88 % 1019 hPa 0,0 l/m 0,0 km/h (0 Bft)
29.01.2008 22:03 22,0 C 1,5 C 88 % 1019 hPa 0,0 l/m 0,0 km/h (0 Bft)
29.01.2008 22:06 22,0 C 1,5 C 88 % 1019 hPa 0,0 l/m 0,0 km/h (0 Bft)
29.01.2008 22:09 22,0 C 1,5 C 88 % 1019 hPa 0,0 l/m 0,0 km/h (0 Bft)
29.01.2008 22:12 22,0 C 1,5 C 88 % 1019 hPa 0,0 l/m 0,0 km/h (0 Bft)
29.01.2008 22:15 22,0 C 1,5 C 88 % 1019 hPa 0,0 l/m 0,0 km/h (0 Bft)
29.01.2008 22:18 22,0 C 1,5 C 88 % 1019 hPa 0,0 l/m 0,0 km/h (0 Bft)
29.01.2008 22:21 22,0 C 1,5 C 88 % 1019 hPa 0,0 l/m 0,0 km/h (0 Bft)
29.01.2008 22:24 21,9 C 1,5 C 88 % 1019 hPa 0,0 l/m 0,0 km/h (0 Bft)
29.01.2008 22:27 21,9 C 1,5 C 88 % 1019 hPa 0,0 l/m 0,0 km/h (0 Bft)
29.01.2008 22:30 21,9 C 1,5 C 88 % 1019 hPa 0,0 l/m 0,0 km/h (0 Bft)
29.01.2008 22:33 21,9 C 1,4 C 88 % 1019 hPa 0,0 l/m 0,0 km/h (0 Bft)
29.01.2008 22:36 21,9 C 1,4 C 88 % 1019 hPa 0,0 l/m 0,0 km/h (0 Bft)
29.01.2008 22:39 21,9 C 1,4 C 88 % 1018 hPa 0,0 l/m 0,0 km/h (0 Bft)
29.01.2008 22:42 21,9 C 1,4 C 88 % 1019 hPa 0,0 l/m 0,0 km/h (0 Bft)
29.01.2008 22:45 21,9 C 1,2 C 88 % 1018 hPa 0,0 l/m 0,0 km/h (0 Bft)
29.01.2008 22:48 21,9 C 1,2 C 88 % 1018 hPa 0,0 l/m 0,0 km/h (0 Bft)
29.01.2008 22:51 21,9 C 1,2 C 88 % 1018 hPa 0,0 l/m 0,0 km/h (0 Bft)
29.01.2008 22:54 21,9 C 1,2 C 88 % 1018 hPa 0,0 l/m 0,0 km/h (0 Bft)
29.01.2008 22:57 21,9 C 1,2 C 88 % 1018 hPa 0,0 l/m 0,0 km/h (0 Bft)
29.01.2008 23:00 21,8 C 1,2 C 88 % 1018 hPa 0,0 l/m 0,0 km/h (0 Bft)
29.01.2008 23:03 21,8 C 1,2 C 88 % 1018 hPa 0,0 l/m 0,0 km/h (0 Bft)
29.01.2008 23:06 21,8 C 1,2 C 88 % 1018 hPa 0,0 l/m 0,0 km/h (0 Bft)
29.01.2008 23:09 21,8 C 1,2 C 88 % 1018 hPa 0,0 l/m 0,0 km/h (0 Bft)
29.01.2008 23:12 21,8 C 1,2 C 88 % 1018 hPa 0,0 l/m 0,0 km/h (0 Bft)
29.01.2008 23:15 21,8 C 1,2 C 88 % 1018 hPa 0,0 l/m 0,0 km/h (0 Bft)
29.01.2008 23:18 21,8 C 1,2 C 88 % 1018 hPa 0,0 l/m 0,0 km/h (0 Bft)
29.01.2008 23:21 21,8 C 1,2 C 88 % 1018 hPa 0,0 l/m 0,0 km/h (0 Bft)
29.01.2008 23:24 21,8 C 1,2 C 89 % 1018 hPa 0,0 l/m 0,0 km/h (0 Bft)
29.01.2008 23:27 21,8 C 1,2 C 89 % 1018 hPa 0,0 l/m 0,0 km/h (0 Bft)
29.01.2008 23:30 21,8 C 1,2 C 89 % 1018 hPa 0,0 l/m 0,0 km/h (0 Bft)
29.01.2008 23:33 21,8 C 1,3 C 89 % 1018 hPa 0,0 l/m 0,0 km/h (0 Bft)
29.01.2008 23:36 21,8 C 1,3 C 89 % 1018 hPa 0,0 l/m 0,0 km/h (0 Bft)
29.01.2008 23:39 21,8 C 1,3 C 89 % 1018 hPa 0,0 l/m 0,0 km/h (0 Bft)
29.01.2008 23:42 21,8 C 1,3 C 89 % 1018 hPa 0,0 l/m 0,0 km/h (0 Bft)
29.01.2008 23:45 21,8 C 1,3 C 89 % 1018 hPa 0,0 l/m 0,0 km/h (0 Bft)
29.01.2008 23:48 21,8 C 1,3 C 89 % 1018 hPa 0,0 l/m 0,0 km/h (0 Bft)
29.01.2008 23:51 21,8 C 1,3 C 89 % 1018 hPa 0,0 l/m 0,0 km/h (0 Bft)
29.01.2008 23:54 21,8 C 1,3 C 89 % 1018 hPa 0,0 l/m 0,0 km/h (0 Bft)
29.01.2008 23:57 21,8 C 1,3 C 89 % 1018 hPa 0,0 l/m 0,0 km/h (0 Bft)
_ Min-Zeit 05:41 22:45 16:45 22:39 - 00:02
Minimum _ 20,6 C 1,2 C 71 % 1018 hPa - 0,0 km/h (0 Bft)
_ Max-Zeit 19:09 16:15 06:08 00:02 00:02 16:51
Maximum _ 22,4 C 7,6 C 92 % 1025 hPa 0,0 l/m 10,8 km/h
O-SO (2 Bft)
Durchschnitt _ 21,5 C 3,6 C 87 % 1022 hPa #0,0 l/m 1,2 km/h (1 Bft)